DW0326 Weather Reports


Display with metric or nautical units.
time (UTC)temp
F
wind
direction
speed
MPH
gust
MPH
rain 1hr
in
rain 24hr
in
rain mn
in
humidity
%
barometer
mb
20260904183355 81 0 0.0 0.0 0.32 0.38 0.37 99 1010.6
20260904182455 80 228 1.0 10.0 0.35 0.42 0.37 99 1010.6
20260904181555 79 211 0.0 10.0 0.35 0.47 0.37 96 1010.6
20260904175755 80 205 5.0 15.0 0.31 0.43 0.35 92 1011.3
20260904174855 82 210 0.0 13.0 0.16 0.28 0.21 91 1011.1
20260904173955 83 0 0.0 0.0 0.10 0.22 0.12 89 1011.1
20260904173055 84 0 0.0 0.0 0.00 0.12 0.02 83 1011.2
20260904172155 84 316 0.0 4.0 0.00 0.12 0.02 84 1011.2
20260904171255 85 0 0.0 0.0 0.00 0.12 0.02 82 1011.0
20260904170354 86 226 0.0 7.0 0.00 0.12 0.02 81 1010.8
20260904165455 87 182 2.0 11.0 0.00 0.12 0.02 82 1010.8
20260904164555 87 189 0.0 10.0 0.00 0.12 0.02 87 1010.7
20260904163655 87 117 0.0 5.0 0.00 0.12 0.02 88 1010.7
20260904161855 86 117 0.0 7.0 0.00 0.12 0.02 89 1010.6
20260904160055 87 76 1.0 11.0 0.00 0.12 0.02 87 1010.7
20260904154254 88 147 0.0 4.0 0.00 0.12 0.02 86 1010.2
20260904153354 87 0 0.0 0.0 0.00 0.12 0.02 89 1010.1
20260904152455 86 0 0.0 0.0 0.00 0.12 0.02 91 1010.1
20260904151554 85 0 0.0 0.0 0.00 0.12 0.02 92 1010.1
20260904150655 85 0 0.0 0.0 0.00 0.12 0.02 92 1010.1
20260904144855 84 0 0.0 0.0 0.00 0.12 0.02 93 1010.1
20260904143954 84 0 0.0 0.0 0.00 0.12 0.02 95 1010.1
20260904143055 83 0 0.0 0.0 0.00 0.12 0.02 97 1010.1
20260904142155 83 0 0.0 0.0 0.00 0.12 0.02 99 1010.1
20260904141255 82 0 0.0 0.0 0.00 0.12 0.02 100 1010.0
20260904135455 82 0 0.0 0.0 0.00 0.12 0.02 100 1009.8
20260904134554 81 0 0.0 0.0 0.00 0.12 0.02 100 1009.8
20260904133655 81 0 0.0 0.0 0.00 0.12 0.02 100 1009.8
20260904132754 80 0 0.0 0.0 0.00 0.12 0.02 100 1009.7
20260904131855 80 0 0.0 0.0 0.00 0.12 0.02 100 1009.7
20260904130954 79 0 0.0 0.0 0.00 0.12 0.02 99 1009.7
20260904130055 79 0 0.0 0.0 0.00 0.12 0.02 99 1009.6
20260904125154 79 0 0.0 0.0 0.00 0.12 0.02 99 1009.6
20260904123354 79 0 0.0 0.0 0.00 0.12 0.02 99 1009.1
20260904122454 79 0 0.0 0.0 0.00 0.12 0.02 99 1009.1
20260904121555 79 0 0.0 0.0 0.00 0.12 0.02 99 1008.9
20260904115754 79 0 0.0 0.0 0.00 0.12 0.02 99 1008.8
20260904114855 79 0 0.0 0.0 0.00 0.12 0.02 99 1008.9
20260904113054 80 0 0.0 0.0 0.00 0.12 0.02 98 1008.9
20260904112155 80 0 0.0 0.0 0.00 0.12 0.02 98 1008.9
20260904111254 80 0 0.0 0.0 0.00 0.12 0.02 98 1009.0
20260904105454 80 0 0.0 0.0 0.00 0.12 0.02 98 1008.8
20260904104555 80 0 0.0 0.0 0.00 0.12 0.02 98 1008.6
20260904103655 80 0 0.0 0.0 0.00 0.12 0.02 98 1008.6
20260904102754 80 0 0.0 0.0 0.00 0.12 0.02 97 1008.5
20260904100955 80 0 0.0 0.0 0.01 0.12 0.02 97 1008.4
20260904100055 80 0 0.0 0.0 0.01 0.12 0.02 97 1008.3
20260904095154 80 0 0.0 0.0 0.02 0.12 0.02 97 1008.3
20260904093355 81 0 0.0 0.0 0.02 0.12 0.02 96 1008.1
20260904092455 81 0 0.0 0.0 0.02 0.12 0.02 96 1008.1
20260904091554 81 0 0.0 0.0 0.01 0.11 0.01 96 1008.2
20260904090655 81 0 0.0 0.0 0.01 0.11 0.01 95 1008.2
20260904083954 81 0 0.0 0.0 0.00 0.10 0.00 94 1008.4
20260904083054 81 0 0.0 0.0 0.00 0.10 0.00 94 1008.4
20260904082155 81 0 0.0 0.0 0.00 0.10 0.00 94 1008.4
20260904081255 81 0 0.0 0.0 0.00 0.10 0.00 94 1008.4
20260904080355 81 0 0.0 0.0 0.00 0.10 0.00 94 1008.4
20260904075455 81 0 0.0 0.0 0.00 0.10 0.00 94 1008.4
20260904074555 82 0 0.0 0.0 0.00 0.10 0.00 94 1008.4
20260904073654 82 0 0.0 0.0 0.00 0.10 0.00 94 1008.4
20260904072754 82 0 0.0 0.0 0.00 0.10 0.00 94 1008.5
20260904071855 82 0 0.0 0.0 0.00 0.10 0.00 94 1008.5
20260904070955 82 0 0.0 0.0 0.00 0.10 0.00 94 1008.5
20260904070054 82 0 0.0 0.0 0.00 0.10 0.00 93 1008.6
20260904065154 82 0 0.0 0.0 0.00 0.10 0.00 93 1008.6
20260904064255 82 0 0.0 0.0 0.00 0.10 0.00 93 1008.6
20260904063354 82 0 0.0 0.0 0.00 0.10 0.00 93 1008.6
20260904062455 82 0 0.0 0.0 0.00 0.10 0.00 92 1008.6
20260904061554 82 0 0.0 0.0 0.00 0.10 0.00 92 1008.6
20260904060654 82 0 0.0 0.0 0.00 0.10 0.00 92 1008.6
20260904055755 82 0 0.0 0.0 0.00 0.10 0.00 92 1008.6
20260904053954 82 179 1.0 10.0 0.00 0.10 0.00 92 1008.6
20260904053055 82 160 1.0 6.0 0.00 0.10 0.00 92 1008.6
20260904050355 83 0 0.0 0.0 0.00 0.10 0.00 92 1008.6
20260904044555 83 0 0.0 0.0 0.00 0.10 0.10 91 1008.6
20260904043655 83 156 0.0 5.0 0.00 0.10 0.10 91 1008.6
20260904040955 83 171 1.0 6.0 0.00 0.10 0.10 91 1008.6
20260904040054 83 171 0.0 5.0 0.00 0.10 0.10 91 1008.6
20260904035154 83 0 0.0 0.0 0.00 0.10 0.10 91 1008.6
20260904034254 83 166 0.0 1.0 0.00 0.10 0.10 91 1008.7
20260904033355 83 154 0.0 7.0 0.00 0.10 0.10 91 1008.8
20260904032454 83 166 0.0 4.0 0.00 0.10 0.10 91 1008.8
20260904031554 83 174 1.0 8.0 0.00 0.10 0.10 91 1008.7
20260904030654 83 0 0.0 0.0 0.00 0.10 0.10 91 1008.7
20260904025754 83 0 0.0 0.0 0.00 0.10 0.10 91 1008.6
20260904024854 83 0 0.0 0.0 0.00 0.10 0.10 91 1008.6
20260904023955 83 0 0.0 0.0 0.00 0.10 0.10 91 1008.6
20260904023054 83 0 0.0 0.0 0.00 0.10 0.10 91 1008.3
20260904022154 83 172 0.0 7.0 0.00 0.10 0.10 91 1008.3
20260904021254 83 166 0.0 4.0 0.00 0.10 0.10 91 1008.1
20260904020354 83 166 0.0 4.0 0.00 0.10 0.10 91 1008.0
20260904015454 83 165 0.0 4.0 0.00 0.10 0.10 90 1008.0
20260904014554 83 165 0.0 4.0 0.00 0.10 0.10 90 1008.0
20260904013655 83 175 0.0 6.0 0.00 0.10 0.10 90 1008.0
20260904012754 83 164 0.0 6.0 0.00 0.10 0.10 90 1007.9
20260904011854 83 80 0.0 3.0 0.00 0.10 0.10 91 1007.7
20260904010954 83 0 0.0 0.0 0.00 0.10 0.10 91 1007.7
20260904010054 82 113 0.0 3.0 0.00 0.10 0.10 90 1007.8
20260904005155 82 0 0.0 0.0 0.00 0.10 0.10 90 1007.8
20260904004254 82 0 0.0 0.0 0.00 0.10 0.10 91 1007.6
20260904003354 82 0 0.0 0.0 0.00 0.10 0.10 91 1007.8
20260904002454 82 0 0.0 0.0 0.00 0.10 0.10 91 1007.8
20260904001555 82 0 0.0 0.0 0.00 0.10 0.10 90 1008.0
20260904000654 82 0 0.0 0.0 0.00 0.10 0.10 90 1008.0
20260903235754 82 0 0.0 0.0 0.00 0.10 0.10 91 1008.0
20260903234854 82 0 0.0 0.0 0.00 0.10 0.10 91 1008.0
20260903233054 81 0 0.0 0.0 0.00 0.10 0.10 90 1008.0
20260903232154 81 0 0.0 0.0 0.00 0.10 0.10 91 1008.0
20260903231255 81 0 0.0 0.0 0.00 0.10 0.10 91 1008.0
20260903230354 81 0 0.0 0.0 0.00 0.10 0.10 91 1008.1
20260903225454 80 0 0.0 0.0 0.00 0.10 0.10 91 1008.1
20260903224554 80 0 0.0 0.0 0.00 0.10 0.10 90 1008.0
20260903223654 80 0 0.0 0.0 0.00 0.10 0.10 91 1008.0
20260903222754 80 0 0.0 0.0 0.00 0.10 0.10 92 1008.1
20260903221854 80 0 0.0 0.0 0.00 0.10 0.10 93 1008.2
20260903220954 79 0 0.0 0.0 0.00 0.10 0.10 93 1008.2
20260903220054 79 84 0.0 4.0 0.00 0.10 0.10 93 1008.5
20260903213354 79 0 0.0 0.0 0.00 0.10 0.10 95 1009.1
20260903212454 79 0 0.0 0.0 0.00 0.10 0.10 97 1009.1
20260903211554 80 0 0.0 0.0 0.00 0.10 0.10 97 1009.4
20260903203954 80 0 0.0 0.0 0.00 0.10 0.10 98 1009.3
20260903203055 79 0 0.0 0.0 0.00 0.10 0.10 97 1008.7
20260903202154 79 0 0.0 0.0 0.00 0.10 0.10 97 1008.7
20260903201254 79 0 0.0 0.0 0.00 0.10 0.10 97 1009.1
20260903200354 80 0 0.0 0.0 0.00 0.10 0.10 98 1009.1
20260903195454 79 0 0.0 0.0 0.00 0.10 0.10 98 1009.1
20260903192754 79 0 0.0 0.0 0.03 0.10 0.10 97 1009.4
20260903190954 78 0 0.0 0.0 0.10 0.10 0.10 95 1009.1
20260903190054 79 6 0.0 5.0 0.10 0.10 0.10 94 1009.5
20260903185154 80 4 1.0 10.0 0.10 0.10 0.10 93 1009.5